OAL738 LGTS-LGKO

Flight info

Callsign OAL738
Flight time 1h 9m
Altitude 23000
Route ARNAS M603 PEREN N128 LMO L618 MES N139 LURUS L995 KOPAR
Aircraft DH8D/M-SDE2E3FGRY/H

Departure

Time 2026-05-01 14:23
Airport Thessaloniki Macedonia International Airport (LGTS)

Arrival

Time 2026-05-01 15:32
Airport Kos International Airport "Ippokratis" (LGKO)
Time Latitude Longitude Altitude Speed Heading
2026-05-01 13:53 40.52400 22.97459 10 ft 0 kts 46°
2026-05-01 14:14 40.52397 22.97455 9 ft 2 kts 42°
2026-05-01 14:15 40.52387 22.97442 9 ft 2 kts 45°
2026-05-01 14:15 40.52378 22.97426 9 ft 2 kts 68°
2026-05-01 14:15 40.52375 22.97407 9 ft 2 kts 88°
2026-05-01 14:15 40.52377 22.97388 9 ft 2 kts 109°
2026-05-01 14:16 40.52383 22.97370 9 ft 2 kts 130°
2026-05-01 14:16 40.52388 22.97365 9 ft 0 kts 135°
2026-05-01 14:19 40.52385 22.97368 9 ft 2 kts 135°
2026-05-01 14:19 40.52356 22.97406 9 ft 9 kts 134°
2026-05-01 14:19 40.52297 22.97482 10 ft 14 kts 135°
2026-05-01 14:19 40.52226 22.97575 11 ft 13 kts 135°
2026-05-01 14:20 40.52155 22.97649 11 ft 12 kts 146°
2026-05-01 14:20 40.52034 22.97796 13 ft 11 kts 135°
2026-05-01 14:20 40.51989 22.97898 14 ft 15 kts 103°
2026-05-01 14:21 40.51959 22.98053 15 ft 19 kts 105°
2026-05-01 14:21 40.51924 22.98238 16 ft 22 kts 104°
2026-05-01 14:21 40.51885 22.98443 17 ft 24 kts 103°
2026-05-01 14:22 40.51798 22.98704 19 ft 8 kts 187°
2026-05-01 14:22 40.51747 22.98690 19 ft 6 kts 192°
2026-05-01 14:22 40.51690 22.98671 19 ft 8 kts 201°
2026-05-01 14:22 40.51690 22.98586 19 ft 35 kts 284°
2026-05-01 14:23 40.51831 22.97843 15 ft 125 kts 283°
2026-05-01 14:23 40.52101 22.96547 174 ft 159 kts 286°
2026-05-01 14:23 40.52451 22.95097 676 ft 176 kts 286°
2026-05-01 14:23 40.52838 22.93546 1322 ft 185 kts 286°
2026-05-01 14:24 40.53201 22.91923 1980 ft 189 kts 285°
2026-05-01 14:24 40.53587 22.90131 2234 ft 214 kts 284°
2026-05-01 14:24 40.53991 22.88243 2835 ft 219 kts 284°
2026-05-01 14:24 40.54399 22.86323 3406 ft 222 kts 285°
2026-05-01 14:25 40.54937 22.84416 3940 ft 226 kts 303°
2026-05-01 14:25 40.56120 22.83091 4488 ft 224 kts 339°
2026-05-01 14:25 40.57618 22.82865 5028 ft 221 kts 13°
2026-05-01 14:25 40.59053 22.83567 5648 ft 219 kts 26°
2026-05-01 14:26 40.60436 22.84376 6288 ft 218 kts 26°
2026-05-01 14:26 40.63198 22.86013 7464 ft 223 kts 25°
2026-05-01 14:26 40.64627 22.86882 8052 ft 225 kts 25°
2026-05-01 14:27 40.66054 22.87765 8605 ft 229 kts 25°
2026-05-01 14:27 40.67490 22.88664 9210 ft 230 kts 25°
2026-05-01 14:27 40.68933 22.89575 9764 ft 233 kts 25°
2026-05-01 14:28 40.71890 22.91479 10909 ft 238 kts 25°
2026-05-01 14:28 40.73410 22.92379 11457 ft 241 kts 28°
2026-05-01 14:28 40.74526 22.94019 11922 ft 249 kts 67°
2026-05-01 14:28 40.74607 22.96261 12338 ft 256 kts 106°
2026-05-01 14:29 40.73611 22.98195 12788 ft 259 kts 139°
2026-05-01 14:29 40.72211 22.99710 13286 ft 263 kts 141°
2026-05-01 14:30 40.67967 23.04503 14787 ft 271 kts 139°
2026-05-01 14:30 40.66576 23.06145 15282 ft 272 kts 139°
2026-05-01 14:30 40.65169 23.07827 15842 ft 270 kts 139°
2026-05-01 14:31 40.62402 23.11173 16842 ft 270 kts 138°
2026-05-01 14:31 40.61024 23.12853 17309 ft 270 kts 138°
2026-05-01 14:31 40.59633 23.14554 17774 ft 270 kts 138°
2026-05-01 14:31 40.58275 23.16218 18212 ft 270 kts 139°
2026-05-01 14:32 40.56899 23.17907 18617 ft 270 kts 139°
2026-05-01 14:32 40.55541 23.19574 19044 ft 269 kts 139°
2026-05-01 14:32 40.54169 23.21261 19444 ft 269 kts 139°
2026-05-01 14:32 40.52801 23.22942 19839 ft 269 kts 139°
2026-05-01 14:33 40.51438 23.24618 20215 ft 268 kts 139°
2026-05-01 14:33 40.50071 23.26298 20586 ft 268 kts 139°
2026-05-01 14:33 40.48715 23.27965 20929 ft 267 kts 139°
2026-05-01 14:33 40.47359 23.29631 21256 ft 267 kts 139°
2026-05-01 14:34 40.46000 23.31300 21572 ft 267 kts 139°
2026-05-01 14:34 40.44658 23.32948 21869 ft 266 kts 139°
2026-05-01 14:34 40.43295 23.34619 22152 ft 266 kts 139°
2026-05-01 14:34 40.41954 23.36264 22414 ft 266 kts 140°
2026-05-01 14:35 40.40585 23.37941 22676 ft 266 kts 140°
2026-05-01 14:35 40.39231 23.39599 22923 ft 266 kts 140°
2026-05-01 14:35 40.37882 23.41250 23099 ft 270 kts 140°
2026-05-01 14:35 40.36482 23.42959 23159 ft 280 kts 140°
2026-05-01 14:36 40.35018 23.44746 23180 ft 290 kts 139°
2026-05-01 14:36 40.33525 23.46568 23183 ft 301 kts 139°
2026-05-01 14:36 40.31974 23.48462 23182 ft 311 kts 139°
2026-05-01 14:36 40.30359 23.50432 23184 ft 320 kts 139°
2026-05-01 14:37 40.28704 23.52452 23186 ft 329 kts 140°
2026-05-01 14:37 40.27026 23.54499 23185 ft 336 kts 139°
2026-05-01 14:37 40.25302 23.56600 23182 ft 342 kts 139°
2026-05-01 14:37 40.23551 23.58733 23183 ft 347 kts 139°
2026-05-01 14:38 40.21744 23.60932 23181 ft 352 kts 139°
2026-05-01 14:38 40.19960 23.63101 23187 ft 355 kts 139°
2026-05-01 14:38 40.18129 23.65326 23184 ft 356 kts 140°
2026-05-01 14:38 40.16318 23.67526 23184 ft 356 kts 140°
2026-05-01 14:39 40.14498 23.69736 23189 ft 356 kts 140°
2026-05-01 14:39 40.12700 23.71916 23190 ft 356 kts 140°
2026-05-01 14:39 40.10883 23.74116 23190 ft 356 kts 140°
2026-05-01 14:39 40.09053 23.76331 23189 ft 356 kts 140°
2026-05-01 14:40 40.07252 23.78508 23194 ft 356 kts 140°
2026-05-01 14:40 40.05421 23.80720 23194 ft 355 kts 140°
2026-05-01 14:40 40.03617 23.82898 23192 ft 355 kts 140°
2026-05-01 14:40 40.01790 23.85102 23196 ft 355 kts 140°
2026-05-01 14:41 39.99999 23.87260 23194 ft 354 kts 140°
2026-05-01 14:41 39.98194 23.89434 23193 ft 354 kts 141°
2026-05-01 14:41 39.96373 23.91623 23193 ft 354 kts 141°
2026-05-01 14:41 39.94556 23.93809 23192 ft 354 kts 141°
2026-05-01 14:42 39.92752 23.95976 23195 ft 355 kts 141°
2026-05-01 14:42 39.90942 23.98148 23186 ft 355 kts 141°
2026-05-01 14:42 39.89111 24.00344 23191 ft 355 kts 141°
2026-05-01 14:42 39.87293 24.02523 23191 ft 355 kts 141°
2026-05-01 14:43 39.85477 24.04698 23188 ft 355 kts 141°
2026-05-01 14:43 39.83806 24.06698 23192 ft 355 kts 141°
2026-05-01 14:43 39.81982 24.08879 23196 ft 356 kts 141°
2026-05-01 14:43 39.80175 24.11038 23190 ft 356 kts 141°
2026-05-01 14:44 39.78396 24.13162 23195 ft 356 kts 141°
2026-05-01 14:44 39.74743 24.17519 23186 ft 356 kts 141°
2026-05-01 14:44 39.72931 24.19678 23184 ft 357 kts 141°
2026-05-01 14:45 39.71102 24.21856 23176 ft 357 kts 142°
2026-05-01 14:45 39.67431 24.26221 23178 ft 357 kts 142°
2026-05-01 14:45 39.65598 24.28399 23175 ft 358 kts 142°
2026-05-01 14:46 39.63771 24.30568 23180 ft 358 kts 142°
2026-05-01 14:46 39.60078 24.34945 23167 ft 359 kts 142°
2026-05-01 14:46 39.58249 24.37112 23171 ft 359 kts 142°
2026-05-01 14:47 39.56410 24.39289 23177 ft 359 kts 142°
2026-05-01 14:47 39.54549 24.41489 23170 ft 359 kts 142°
2026-05-01 14:47 39.52699 24.43675 23169 ft 359 kts 142°
2026-05-01 14:48 39.48997 24.48044 23167 ft 360 kts 142°
2026-05-01 14:48 39.47165 24.50204 23166 ft 360 kts 142°
2026-05-01 14:48 39.43464 24.54562 23170 ft 361 kts 142°
2026-05-01 14:49 39.39736 24.58945 23162 ft 361 kts 143°
2026-05-01 14:49 39.36017 24.63312 23161 ft 362 kts 143°
2026-05-01 14:50 39.33509 24.66253 23161 ft 361 kts 143°
2026-05-01 14:50 39.28562 24.72045 23148 ft 361 kts 144°
2026-05-01 14:51 39.26699 24.74223 23152 ft 361 kts 144°
2026-05-01 14:51 39.22965 24.78583 23136 ft 362 kts 144°
2026-05-01 14:52 39.19225 24.82944 23140 ft 362 kts 144°
2026-05-01 14:52 39.17361 24.85116 23144 ft 363 kts 144°
2026-05-01 14:52 39.13598 24.89495 23140 ft 363 kts 145°
2026-05-01 14:53 39.11725 24.91672 23133 ft 363 kts 145°
2026-05-01 14:53 39.09858 24.93839 23141 ft 363 kts 144°
2026-05-01 14:53 39.07969 24.96032 23139 ft 363 kts 144°
2026-05-01 14:53 39.06101 24.98199 23141 ft 363 kts 144°
2026-05-01 14:54 39.04203 25.00397 23132 ft 363 kts 145°
2026-05-01 14:54 39.02336 25.02559 23126 ft 364 kts 145°
2026-05-01 14:54 39.00449 25.04742 23127 ft 364 kts 145°
2026-05-01 14:54 38.98582 25.06900 23118 ft 364 kts 145°
2026-05-01 14:55 38.96684 25.09094 23123 ft 364 kts 145°
2026-05-01 14:55 38.94787 25.11208 23112 ft 361 kts 150°
2026-05-01 14:55 38.92698 25.12958 23121 ft 355 kts 157°
2026-05-01 14:55 38.90569 25.14585 23117 ft 355 kts 157°
2026-05-01 14:56 38.88454 25.16196 23125 ft 355 kts 157°
2026-05-01 14:56 38.86315 25.17826 23108 ft 356 kts 157°
2026-05-01 14:56 38.84180 25.19456 23099 ft 356 kts 157°
2026-05-01 14:56 38.82060 25.21075 23114 ft 356 kts 157°
2026-05-01 14:57 38.79934 25.22699 23106 ft 356 kts 157°
2026-05-01 14:57 38.75686 25.25945 23100 ft 356 kts 157°
2026-05-01 14:57 38.73564 25.27566 23104 ft 356 kts 158°
2026-05-01 14:58 38.71429 25.29195 23097 ft 356 kts 157°
2026-05-01 14:58 38.69294 25.30824 23083 ft 357 kts 157°
2026-05-01 14:58 38.67152 25.32457 23083 ft 357 kts 157°
2026-05-01 14:58 38.65009 25.34091 23084 ft 357 kts 157°
2026-05-01 14:59 38.62888 25.35707 23083 ft 357 kts 157°
2026-05-01 14:59 38.60733 25.37347 23086 ft 358 kts 157°
2026-05-01 14:59 38.58622 25.38953 23079 ft 358 kts 158°
2026-05-01 14:59 38.56474 25.40586 23070 ft 358 kts 157°
2026-05-01 15:00 38.52178 25.43849 23084 ft 358 kts 157°
2026-05-01 15:00 38.50048 25.45465 23076 ft 358 kts 158°
2026-05-01 15:00 38.47897 25.47096 23073 ft 357 kts 157°
2026-05-01 15:01 38.45749 25.48723 23062 ft 358 kts 157°
2026-05-01 15:01 38.43624 25.50333 23061 ft 358 kts 157°
2026-05-01 15:01 38.41476 25.51958 23073 ft 358 kts 157°
2026-05-01 15:01 38.39315 25.53591 23069 ft 358 kts 157°
2026-05-01 15:02 38.37172 25.55210 23058 ft 358 kts 158°
2026-05-01 15:02 38.36475 25.55737 23060 ft 358 kts 158°
2026-05-01 15:02 38.32914 25.58424 23070 ft 358 kts 158°
2026-05-01 15:02 38.30765 25.60044 23083 ft 358 kts 158°
2026-05-01 15:03 38.28617 25.61663 23073 ft 358 kts 158°
2026-05-01 15:03 38.26484 25.63269 23078 ft 358 kts 158°
2026-05-01 15:03 38.24350 25.64875 23076 ft 358 kts 158°
2026-05-01 15:03 38.22185 25.66503 23084 ft 357 kts 158°
2026-05-01 15:04 38.20046 25.68110 23078 ft 357 kts 158°
2026-05-01 15:04 38.17914 25.69711 23062 ft 357 kts 158°
2026-05-01 15:04 38.15767 25.71323 23069 ft 357 kts 158°
2026-05-01 15:04 38.13637 25.72920 23075 ft 356 kts 159°
2026-05-01 15:05 38.11494 25.74526 23068 ft 356 kts 159°
2026-05-01 15:05 38.09358 25.76126 23063 ft 355 kts 159°
2026-05-01 15:05 38.07217 25.77727 23056 ft 355 kts 158°
2026-05-01 15:05 38.05093 25.79315 23068 ft 355 kts 158°
2026-05-01 15:06 38.02958 25.80910 23061 ft 355 kts 158°
2026-05-01 15:06 38.00843 25.82489 23065 ft 355 kts 158°
2026-05-01 15:06 37.98700 25.84088 23053 ft 356 kts 159°
2026-05-01 15:06 37.96566 25.85679 23053 ft 356 kts 158°
2026-05-01 15:07 37.94442 25.87262 23057 ft 356 kts 158°
2026-05-01 15:07 37.92305 25.88853 23046 ft 357 kts 158°
2026-05-01 15:07 37.90172 25.90440 23046 ft 357 kts 158°
2026-05-01 15:07 37.88012 25.92047 23041 ft 357 kts 158°
2026-05-01 15:08 37.85885 25.93627 23031 ft 357 kts 158°
2026-05-01 15:08 37.83731 25.95227 23029 ft 358 kts 158°
2026-05-01 15:08 37.81596 25.96812 23026 ft 358 kts 158°
2026-05-01 15:08 37.79436 25.98413 23031 ft 358 kts 158°
2026-05-01 15:09 37.77274 26.00016 23024 ft 358 kts 158°
2026-05-01 15:09 37.75129 26.01606 23024 ft 358 kts 158°
2026-05-01 15:09 37.72961 26.03210 23023 ft 359 kts 158°
2026-05-01 15:09 37.70793 26.04813 23022 ft 359 kts 158°
2026-05-01 15:10 37.68648 26.06398 22976 ft 361 kts 158°
2026-05-01 15:10 37.64212 26.09665 22262 ft 368 kts 158°
2026-05-01 15:10 37.62015 26.11296 21880 ft 365 kts 157°
2026-05-01 15:11 37.59834 26.12910 21503 ft 362 kts 157°
2026-05-01 15:11 37.55526 26.16091 20749 ft 356 kts 157°
2026-05-01 15:11 37.53395 26.17661 20366 ft 353 kts 157°
2026-05-01 15:12 37.51284 26.19216 20005 ft 350 kts 157°
2026-05-01 15:12 37.47119 26.22278 19265 ft 344 kts 156°
2026-05-01 15:12 37.45055 26.23793 18911 ft 341 kts 156°
2026-05-01 15:13 37.38993 26.28235 17840 ft 333 kts 156°
2026-05-01 15:14 37.34996 26.31159 17143 ft 330 kts 156°
2026-05-01 15:14 37.32988 26.32624 16789 ft 330 kts 156°
2026-05-01 15:14 37.29018 26.35519 16092 ft 330 kts 155°
2026-05-01 15:15 37.25046 26.38415 15394 ft 329 kts 155°
2026-05-01 15:15 37.21095 26.41292 14709 ft 328 kts 155°
2026-05-01 15:16 37.17176 26.44143 14016 ft 326 kts 155°
2026-05-01 15:16 37.13257 26.46990 13332 ft 325 kts 155°
2026-05-01 15:17 37.09356 26.49822 12636 ft 323 kts 154°
2026-05-01 15:18 37.03555 26.54025 11628 ft 321 kts 154°
2026-05-01 15:18 37.01596 26.55443 11285 ft 320 kts 154°
2026-05-01 15:19 36.96008 26.59524 10288 ft 303 kts 150°
2026-05-01 15:19 36.93068 26.63310 9654 ft 306 kts 132°
2026-05-01 15:19 36.91704 26.65320 9410 ft 308 kts 132°
2026-05-01 15:20 36.88931 26.69423 8909 ft 306 kts 132°
2026-05-01 15:20 36.87561 26.71449 8650 ft 304 kts 132°
2026-05-01 15:20 36.86206 26.73450 8402 ft 301 kts 132°
2026-05-01 15:21 36.84864 26.75432 8147 ft 297 kts 131°
2026-05-01 15:21 36.83532 26.77400 7885 ft 288 kts 131°
2026-05-01 15:21 36.82259 26.79281 7628 ft 284 kts 132°
2026-05-01 15:21 36.80976 26.81167 7379 ft 282 kts 131°
2026-05-01 15:22 36.78461 26.84866 6881 ft 278 kts 131°
2026-05-01 15:22 36.77214 26.86697 6690 ft 276 kts 131°
2026-05-01 15:22 36.75957 26.88542 6506 ft 274 kts 131°
2026-05-01 15:23 36.74740 26.90328 6330 ft 272 kts 131°
2026-05-01 15:23 36.73508 26.92134 6138 ft 271 kts 131°
2026-05-01 15:23 36.72298 26.93909 5965 ft 270 kts 131°
2026-05-01 15:23 36.71082 26.95690 5797 ft 268 kts 130°
2026-05-01 15:24 36.69868 26.97468 5616 ft 267 kts 130°
2026-05-01 15:24 36.68665 26.99229 5447 ft 266 kts 130°
2026-05-01 15:24 36.67466 27.00982 5270 ft 265 kts 130°
2026-05-01 15:24 36.66272 27.02728 5103 ft 264 kts 130°
2026-05-01 15:25 36.65083 27.04465 4941 ft 264 kts 130°
2026-05-01 15:25 36.63890 27.06208 4784 ft 262 kts 130°
2026-05-01 15:25 36.62717 27.07921 4695 ft 258 kts 130°
2026-05-01 15:25 36.61559 27.09612 4620 ft 254 kts 130°
2026-05-01 15:26 36.60424 27.11286 4532 ft 251 kts 128°
2026-05-01 15:26 36.59741 27.13201 4413 ft 233 kts 91°
2026-05-01 15:26 36.60016 27.15058 4330 ft 216 kts 68°
2026-05-01 15:26 36.60521 27.16835 4237 ft 215 kts 67°
2026-05-01 15:27 36.61026 27.18554 4041 ft 209 kts 66°
2026-05-01 15:27 36.61592 27.20178 3686 ft 205 kts 51°
2026-05-01 15:27 36.62698 27.21054 3409 ft 187 kts
2026-05-01 15:28 36.65025 27.19999 3065 ft 176 kts 331°
2026-05-01 15:28 36.66092 27.19263 2907 ft 174 kts 330°
2026-05-01 15:28 36.67142 27.18511 2760 ft 172 kts 330°
2026-05-01 15:29 36.69125 27.17048 2487 ft 159 kts 329°
2026-05-01 15:29 36.70064 27.16345 2304 ft 156 kts 329°
2026-05-01 15:29 36.71767 27.15057 1935 ft 133 kts 329°
2026-05-01 15:30 36.72996 27.14126 1645 ft 120 kts 329°
2026-05-01 15:31 36.76169 27.11661 925 ft 122 kts 329°
2026-05-01 15:31 36.77620 27.10542 643 ft 125 kts 328°
2026-05-01 15:32 36.79053 27.09432 394 ft 110 kts 327°
2026-05-01 15:32 36.79641 27.08991 413 ft 15 kts 355°
2026-05-01 15:33 36.79806 27.08983 415 ft 2 kts 358°
2026-05-01 15:34 36.79827 27.08982 416 ft 2 kts 358°